Powrót do katalogu

FENGYUN 1C DEB

AktywnySSO
NORAD 32203·DEBRIS·🇨🇳 China

Wystrzelony May 10, 1999 z Taiyuan Satellite Launch Center

Loading…

Następne Przeloty (najbliższe 24 godziny)

TLE

ŚwieżeSource: Space-Track

Epoka: Sep 14, 2026, 03:39 UTC

1 32203U 99025CUZ 26257.15224867  .00067483  00000-0  49545-3 0  9990
2 32203  96.9685 147.1572 0080030 147.0056 213.6238 15.68558722793740

Śledź FENGYUN 1C DEB w czasie rzeczywistym z AllMySat

Download on the App Store